Flight Briefing for CPX718

Departure Arrival
Juan Santamar?a International Airport (MROC)
Click to view FAA NOTAMS
Miami International Airport (KMIA)
Click to view FAA NOTAMS
Departure Time Arrival Time
N/A N/A
Aircraft Distance
B767-300BDSF 976nm
Departure METAR Arrival METAR
MROC 190700Z 07012KT 050V120 CAVOK 21/15 A3001 NOSIG KMIA 190653Z 35008KT 8SM OVC011 21/19 A3000 RMK AO2 SLP160 T02110194
Suggested Route
UCA UA301 URSUS FLIPR6


View recent IFR Routes data
Notes



Charts and Procedures

Charts for MROC
No chart available
Charts for KMIA
No chart available

Windy.com Weather Map